Details From OEJN - Jeddah King Abdulaziz Intl
To OETF - Taif
Flight Number -
Tags Generated
Created
Modified
Stats Distance 78 nm / 145 km
Max Altitude 0 ft / 0 m
Waypoints 2
Social Downloads 0
Likes 0
Share VATSIM

Download

Looking for another format? Having issues loading an existing format? Contact us
Advertisement - Login to hide

Notes

Generated

Route

OEJN OETF

ID Type Via Altitude Latitude Longitude Leg Dist Tot Dist Heading (true) Name
O OEJN APT - 0 ft / 0 m 21.68913˚ 39.15388˚ - 0 nm - -
O OETF APT - 0 ft / 0 m 21.50642˚ 40.54094˚ 78 nm 78 nm 98° / 98° -

Altitude Profile

Advertisement - Login to hide

OEJN

Details ICAO OEJN (JED)
Name Jeddah King Abdulaziz Intl
Region Saudi Arabia
Timezone Asia/Riyadh (UTC+3.0)
Stats Elevation 48 ft / 15 m (AMSL)
Location 21.681319° 39.155647°
Runways 3
Magnetic Variation 3.513° E

METAR

OEJN 131500Z 25009KT CAVOK 28/19 Q1015 NOSIG

Decode

TAF

Not found

Departure Runways

ID Width Length Bearing (true) Bearing (mag) Surface Threshold Offset Overrun Length
16C 197 ft / 60 m 10,866 ft / 3,312 m 159.86° 156.35° Concrete 500 ft / 152 m 0 ft / 0 m
16L 148 ft / 45 m 12,151 ft / 3,704 m 159.87° 156.36° Asphalt 800 ft / 244 m 0 ft / 0 m
16R 197 ft / 60 m 12,514 ft / 3,814 m 159.86° 156.35° Concrete 0 ft / 0 m 394 ft / 120 m
34C 197 ft / 60 m 10,866 ft / 3,312 m 339.87° 336.36° Concrete 500 ft / 152 m 0 ft / 0 m
34L 197 ft / 60 m 12,514 ft / 3,814 m 339.86° 336.35° Concrete 0 ft / 0 m 394 ft / 120 m
34R 148 ft / 45 m 12,151 ft / 3,704 m 339.88° 336.37° Asphalt 800 ft / 244 m 0 ft / 0 m

OETF

Details ICAO OETF (TIF)
Name TAIF
Region Saudi Arabia
Timezone Asia/Riyadh (UTC+3.0)
Stats Elevation 4,848 ft / 1,478 m (AMSL)
Location 21.486611° 40.540617°
Runways 2
Magnetic Variation 3.359° E

METAR

OETF 131500Z 29008KT CAVOK 21/05 Q1021 NOSIG

Decode

TAF

Not found

Destination Runways

ID Width Length Bearing (true) Bearing (mag) Surface Threshold Offset Overrun Length
07 148 ft / 45 m 12,279 ft / 3,743 m 74.58° 71.22° Asphalt 0 ft / 0 m 960 ft / 293 m
17 148 ft / 45 m 11,051 ft / 3,368 m 172.15° 168.79° Asphalt 0 ft / 0 m 380 ft / 116 m
25 148 ft / 45 m 12,279 ft / 3,743 m 254.59° 251.23° Asphalt 0 ft / 0 m 400 ft / 122 m
35 148 ft / 45 m 11,051 ft / 3,368 m 352.15° 348.79° Asphalt 0 ft / 0 m 322 ft / 98 m

Popular Alternatives